GEBA-online

Gesellschaft der Bassisten in Deutschland

www.GEBA-online.de

Gesellschaft der Bassisten in Deutschland



• • • Forum

Auch in diesem Forum gibt es Regeln: Forum-Regeln

SucheTagcloud
Freitextsuche
  
Kategoriensuche

Seite: 1 - 2 - 3 - 4 - 5 - 6 - 7 - 8 - 9 - 10 - 11 - 12 - 13 - 14 - 15 - 16 - 17 - 18 - 19 - 20 - 21 - 22 - 23 - 24 - 25 - 26 - 27 - 28 - 29 - 30 - 31 - 32 - 33 - 34 - 35 - 36 - 37 - 38 - 39 - 40 - 41 - 42 - 43 - 44 | Einen Beitrag ins Forum stellen

Beitrag Autor Letzter Beitrag Datum ReaktionenAufrufe
Gigs im Freien jlohse02.07.2020, 21:03:01 01.07.2020, 19:45:54 5164
professionelles live Streaming Konzert morgen Abend, 02.07.2020 um 20:20Uhr conbass02.07.2020, 07:00:05 01.07.2020, 19:33:21 3160
Genßler Saiten (1 2) geibrusch01.07.2020, 19:09:35 08.08.2010, 12:49:30 11294960
Tempera Strings (Gerold Genssler) martinthi30.06.2020, 23:35:28 11.04.2020, 22:55:35 111636
Mysteriöses Klappern FrankS.30.06.2020, 18:40:35 30.03.2013, 17:57:11 2731967
Preis für gebrauchten Thomann 1/8 Bass parisa29.06.2020, 01:12:24 10.04.2020, 22:15:27 141305
Schmerzen im Daumen bei französischer Bogenhaltung HobbyBass29.06.2020, 01:07:55 19.06.2020, 20:28:35 9586
Top Tips for Gypsy Jazz Bass Lines Ste-Fan26.06.2020, 14:52:12 26.06.2020, 14:52:12 0212
What Are You Practising Ste-Fan25.06.2020, 16:04:18 23.06.2020, 20:33:22 2311
geeigneter Amp für Akustikbass charleszell24.06.2020, 18:21:53 03.06.2008, 00:29:02 3532773
Enrico Monzitta Kontrabass aus 1902 Wert? Kontrabassneuling24.06.2020, 10:08:57 07.05.2019, 19:58:30 22804
Amp-Suche Oli24.06.2020, 09:56:22 09.11.2008, 10:29:13 1230065
Reußzehn Bass Friend Hen24.06.2020, 09:49:53 23.08.2012, 17:05:59 419168
Suzuki-Kontrabass-Klasse Ste-Fan22.06.2020, 21:06:12 22.06.2020, 21:06:12 0185
Der Simandl-Eklat Ste-Fan22.06.2020, 20:57:14 23.04.2020, 19:21:14 71591
Ein Fall für Doktor Stradivari und Kommissar Reuter? Ste-Fan19.06.2020, 20:06:48 17.06.2020, 18:36:30 6414
Niedriger Steg: Halswinkel ändern vs. Keil unter Griffbrett hervejeanne19.06.2020, 09:05:26 18.06.2020, 16:23:43 2305
Bach / Beethoven the Archive Demo Recording Coronameister16.06.2020, 09:47:35 15.06.2020, 11:20:21 1392
Halsdesinfektion Ste-Fan15.06.2020, 18:51:11 06.05.2020, 14:47:43 171659
ZOOM-Show von Adam Ben Ezra Ste-Fan15.06.2020, 18:42:37 15.06.2020, 18:42:37 0248
HanseBass 2020/2021 Ste-Fan15.06.2020, 10:29:53 15.06.2020, 10:29:53 0235
SightReading mit Ulf Prelle Ste-Fan15.06.2020, 10:23:57 15.06.2020, 10:23:57 0243
Composit (GFK) Bass? Fragmentalis09.06.2020, 16:25:56 06.06.2015, 09:15:20 2525846
Bässe mit abnehmbaren Hals bassdivad07.06.2020, 05:50:57 01.06.2020, 18:11:37 2605
Bass-Vergleich DrJohn05.06.2020, 21:10:37 28.05.2020, 22:47:37 231467
Schnarren beim Wechselbass Ste-Fan05.06.2020, 18:21:59 26.05.2020, 21:04:10 13997
Kräftiger Bass gesucht albo03.06.2020, 22:37:07 02.06.2020, 14:50:08 2529
WARNUNG!! BETRÜGER!! Rapp27.05.2020, 15:48:48 23.05.2020, 10:56:17 11009
Spiccato wulfcam25.05.2020, 20:02:06 15.08.2019, 08:18:50 294838
Scooping Ste-Fan25.05.2020, 11:48:54 25.05.2020, 11:48:54 0455
Slap-Saiten für Klassiker Ste-Fan24.05.2020, 00:27:25 07.05.2020, 00:27:36 6808
Was ist das für ein Bass? Ste-Fan24.05.2020, 00:11:34 20.05.2020, 18:03:24 4782
Warnung! Betrüger! bassfranky23.05.2020, 10:50:41 26.09.2017, 12:35:49 114578
Audio Sprockets Tone Dexter ChristophKammer19.05.2020, 16:57:58 13.01.2018, 23:42:09 9419244
Unterricht in Neuss Jörn17.05.2020, 11:11:14 02.10.2015, 18:22:26 420761
Jammen mit der WDR Bigband jlohse16.05.2020, 21:24:57 13.05.2020, 19:49:38 7783
Coronabass-Sammlung (YouTube-Playlist) kontrafuss16.05.2020, 17:30:01 14.05.2020, 22:02:22 2584
Verstärker WatermelonMan16.05.2020, 14:12:49 16.05.2020, 14:12:49 0438
Feinstimmer Bassta716.05.2020, 13:44:11 15.05.2020, 16:26:36 7605
Kontrabassistinnen und Kontrabassisten Ste-Fan07.05.2020, 20:33:52 05.05.2020, 20:43:29 6857
wie lange halten umwickelte Saiten? doghouse07.05.2020, 11:43:14 29.04.2020, 16:34:41 41038
Umbau: Abnehmbarer Hals Baumkruste29.04.2020, 18:37:49 21.04.2020, 14:47:58 141941
Stimmstockposition verändern nagybögö29.04.2020, 14:09:15 05.11.2008, 22:52:39 3151175
Unterricht in Hannover HannoBass28.04.2020, 18:11:57 27.04.2020, 13:20:41 2685
Duzen vs. Siezen Ste-Fan25.04.2020, 12:25:47 11.04.2020, 00:22:57 81273
Meine Saitenmatrix und mein Channel hervejeanne24.04.2020, 15:24:23 03.04.2020, 18:59:12 81303
Position Saitenhalter Basskl23.04.2020, 21:05:12 16.04.2020, 13:57:49 111164
einstellbarer Stimmstock Klangzauberstab mattes20.04.2020, 14:55:44 16.10.2019, 13:20:11 8917171
Meta Hodos Bassta705.04.2020, 17:12:18 28.03.2020, 19:14:49 61656
Universallösung Verstärker und Boxen für E-und Kontrabass tippit4902.04.2020, 12:01:49 12.07.2019, 21:02:18 63438
Play along 16fuss31.03.2020, 17:51:20 31.03.2020, 14:23:12 2890
J.Wilfer Kontrabass ?!Wertschätzung?! Sabina27.03.2020, 10:42:31 21.02.2006, 13:42:04 920464
wilfert Bass Klaus Behrends27.03.2020, 09:45:26 19.02.2004, 18:45:33 725504
Bose L1 Frank27.03.2020, 09:22:07 08.02.2020, 14:46:01 31452
Soll ich mit Kontrabass anfangen? Michi6225.03.2020, 21:56:02 31.03.2019, 17:48:57 247667
Kontrabass kaufen Basst!25.03.2020, 21:55:32 22.02.2020, 12:04:41 162411
QSC 12.2 denisdn19.03.2020, 22:55:45 16.03.2020, 18:01:13 41353
Meine "Billig-Kontrabass" Erfahrungen KaschiSoeth09.03.2020, 10:37:43 07.03.2020, 19:12:29 22183
blackwood Griffbrett hauptimann07.03.2020, 14:19:13 08.06.2017, 13:05:51 816248
Kontrabass " unterschlagen " koelbljoachim01.03.2020, 10:35:36 29.01.2013, 20:30:36 1330379
Bassbogen H.R.Pfretzschner gritzka27.02.2020, 18:01:56 20.02.2020, 14:59:10 31346
Komressor?! Ja Bitte! Artsimpson24.02.2020, 01:30:38 20.02.2020, 12:15:15 11221
Leatherwood bespoke rosin Bassist1421.02.2020, 01:04:50 01.09.2019, 20:07:54 103500
Kolophonium-Frust nagybögö20.02.2020, 11:59:53 19.12.2015, 13:04:28 4020990
Noten Hindemith Orchesterstimmung HolgerSt17.02.2020, 18:42:28 22.02.2006, 21:06:54 1315744
Mélâss Methode Bassta716.02.2020, 16:56:54 15.02.2020, 15:09:14 31168
Welche Saiten sind das? double_is_bässer24.01.2020, 17:02:38 10.01.2020, 22:10:52 21661
Welche Hybrid Saiten für Swing + bisschen Arco? Axolotl22.01.2020, 16:39:43 01.01.2020, 21:46:20 152401
Kleine Kunststoff Hülse an Spirocore Mittel D-Saite Grandefuturo16.01.2020, 23:31:15 08.01.2020, 00:17:58 92274
Sololiteratur in Orchesterstimmung? Hen16.01.2020, 13:45:47 12.01.2012, 11:22:22 544138
Händlerverkauf auf Kommission im Südwesten Bassist_081513.01.2020, 15:38:53 13.01.2020, 14:12:57 11120
Bassbauer im Raum Würzburg-Bamberg? don6713.01.2020, 10:24:59 07.01.2020, 17:26:51 21285
Saiten und Griffbrett reinigen Basst!10.01.2020, 17:31:55 05.10.2019, 12:42:59 132860
Gewerbliche Anbieter im Marktplatz MoBass07.01.2020, 19:02:44 07.01.2020, 19:02:44 01124
Electric Upright Bass MK werner05.01.2020, 15:29:36 05.01.2020, 11:30:27 11328
der ideale Kontrabass-Stuhl streichbass24.12.2019, 12:20:21 18.03.2006, 22:17:41 3546681
Sammelsurium dufter Bassvideos (1 2 3) HendrikNehls18.12.2019, 01:07:36 28.01.2009, 01:54:06 250294247
Helicore Orchestra tauschen pedalist2916.12.2019, 15:48:03 15.12.2019, 10:13:35 42009
Venta-Luftbefeuchter HartKor14.12.2019, 21:58:15 10.12.2019, 22:01:53 31432
Kontrabass: tragen oder ziehen? turgur04.12.2019, 20:31:10 28.11.2019, 16:52:23 132526
Basslehrertreffen Ste-Fan03.12.2019, 11:15:25 07.11.2019, 19:43:05 11892
Instrumentenversicherung fabfourstrings29.11.2019, 12:15:53 10.06.2012, 16:54:36 2449904
7.12. save the date: 7. Arbeitstreffen HanseBass Ste-Fan29.11.2019, 10:22:20 07.11.2019, 19:38:32 31641
Kontrabass einschätzen martinthi28.11.2019, 16:55:41 25.11.2019, 22:46:50 21825
Infiziert... Anuschka07.11.2019, 16:44:50 07.11.2019, 00:40:20 11862
Anytune auf altem iOS oder OSX installieren Pizzicato8730.10.2019, 17:27:31 30.10.2019, 17:27:31 01371
Betrug auf GEBA? Baumkruste25.10.2019, 12:28:49 06.01.2017, 19:55:06 5128733
konische Reibahle 1/17 ausleihen? bassknecht20.10.2019, 15:46:12 04.12.2009, 16:02:16 1047065
KB in Lissabon???? moesate11.10.2019, 20:02:11 11.10.2019, 14:50:48 12191
Bögen unter 1000€ TV05.10.2019, 11:57:33 28.09.2019, 12:00:20 42668
Beethoven 6. Gewitter-Sturm Kontrafrank04.10.2019, 11:54:02 02.10.2019, 15:23:13 81892
Transport 2er 3/4 Bässe in einem peugeot Kastenwagen Milan_Boxberg25.09.2019, 02:53:17 23.09.2019, 18:16:10 15330
Lee Rocker Pickup? thias05.09.2019, 11:32:20 12.07.2019, 16:09:55 42771
Sperrholzbass -> kann der was? McSchwaiger03.09.2019, 20:12:20 13.08.2019, 17:15:32 42798
Noten gesucht: "Air" von Egilsson Ste-Fan03.09.2019, 12:11:08 03.09.2019, 12:11:08 01633
Bass leihen PalmaKunkel02.09.2019, 15:57:09 02.09.2019, 15:57:09 01914
Pirastro Perpetuals Frank29.08.2019, 15:33:08 17.08.2019, 12:28:21 73546
Abitur mit Kontrabass Ste-Fan26.08.2019, 11:54:40 21.08.2019, 23:17:54 22195
Genssler AP 2019 denisdn24.08.2019, 15:22:20 24.08.2019, 08:41:20 22203
Alter Kontrabass mit sehr viel Holzwurm mlbass23.08.2019, 08:28:46 21.08.2019, 09:35:07 32787

Seite: 1 - 2 - 3 - 4 - 5 - 6 - 7 - 8 - 9 - 10 - 11 - 12 - 13 - 14 - 15 - 16 - 17 - 18 - 19 - 20 - 21 - 22 - 23 - 24 - 25 - 26 - 27 - 28 - 29 - 30 - 31 - 32 - 33 - 34 - 35 - 36 - 37 - 38 - 39 - 40 - 41 - 42 - 43 - 44


Nur angemeldete Benutzer dürfen Beiträge schreiben. Bitte hier einloggen: LogIn



Zuletzt aktualisiert von Besucher am 02.07.2020, 21:03:01.